Location: Coed Ely
(51.5661°N, 3.4150°W)
Time: 18:49:32
(UTC+00:00)

NOSS 2-2 (E) - Pass Details

Date: 28 January 2021
Orbit: 462 x 1744 km, 63.3° (Epoch: 26 February)

Event Time Altitude Azimuth Distance (km) Brightness Sun altitude
Rises 19:33:30 0° 314° (NW) 3,083 7.8 -24.3°
Reaches altitude 10° 19:35:32 10° 313° (NW) 2,302 7.1 -24.6°
Maximum altitude 19:40:51 79° 228° (SW) 971 4.4 -25.4°
Enters shadow 19:43:28 40° 148° (SSE) 1,493 5.1 -25.9°
